Weather History for Cumberland, MD

Change the Weather History Date:

Friday, July 26, 2013

  Actual Average (KMRB) Record (KMRB)
Temperature  
Mean Temperature 66 °F 75 °F  
Max Temperature 80 °F 86 °F 107 °F (1934)
Min Temperature 51 °F 64 °F 52 °F (1976)
Degree Days  
Heating Degree Days 0 0  
Month to date heating degree days 0  
Since 1 June heating degree days 24  
Since 1 July heating degree days 0  
Cooling Degree Days 0 10  
Month to date cooling degree days 256  
Year to date cooling degree days 496  
Since 1 June cooling degree days 439  
Growing Degree Days 16 (Base 50)    
Moisture  
Dew Point 53 °F    
Average Humidity 63    
Maximum Humidity 100    
Minimum Humidity 32    
Precipitation  
Precipitation 0.00 in 0.13 in 1.60 in (1936)
Month to date precipitation 3.06  
Year to date precipitation 22.55  
Sea Level Pressure  
Sea Level Pressure 30.12 in    
Wind  
Wind Speed 3 mph (ENE)    
Max Wind Speed 7 mph    
Max Gust Speed -    
Visibility 10 miles    
Events      
T = Trace of Precipitation, MM = Missing Value Source: NWS Daily Summary

Daily Weather History Graph

Daily Weather History Graph

Search for Another Location

Airport:

Trip Planner

Search our weather history database for the weather conditions in past years. The results will help you decide how hot, cold, wet, or windy it might be!

Date:

Astronomy

Jul. 26, 2013 Rise Set
Actual Time 6:09 AM EDT 8:33 PM EDT
Civil Twilight 5:38 AM EDT 9:03 PM EDT
Nautical Twilight 5:00 AM EDT 9:41 PM EDT
Astronomical Twilight 4:18 AM EDT 10:23 PM EDT
Moon 10:47 PM EDT (7/26) 10:42 AM EDT (7/26)
Length of Visible Light 15h 25m
Length of Day
14h 24m
Waning Gibbous, 80% of the Moon is Illuminated
Jul 26
Waning Gibbous
Jul 29
Last Quarter
Aug 6
New
Aug 14
First Quarter
Aug 20
Full

Hourly Weather History & Observations

Time (EDT) Temp. Dew Point Humidity Pressure Visibility Wind Dir Wind Speed Gust Speed Precip Events Conditions
12:15 AM 62.6 °F 53.6 °F 72% 30.13 in 10.0 mi North 3.5 mph - N/A   Clear
12:35 AM 60.8 °F 53.6 °F 77% 30.13 in 10.0 mi North 5.8 mph - N/A   Clear
12:55 AM 60.8 °F 53.6 °F 77% 30.13 in 10.0 mi North 6.9 mph - N/A   Clear
1:15 AM 60.8 °F 53.6 °F 77% 30.13 in 10.0 mi North 5.8 mph - N/A   Clear
1:35 AM 59.0 °F 53.6 °F 82% 30.12 in 10.0 mi North 4.6 mph - N/A   Clear
1:55 AM 59.0 °F 53.6 °F 82% 30.12 in 10.0 mi North 3.5 mph - N/A   Clear
2:15 AM 59.0 °F 53.6 °F 82% 30.11 in 10.0 mi North 3.5 mph - N/A   Clear
2:35 AM 55.4 °F 53.6 °F 94% 30.12 in 10.0 mi Calm Calm - N/A   Clear
2:55 AM 55.4 °F 53.6 °F 94% 30.12 in 10.0 mi Calm Calm - N/A   Clear
3:16 AM 53.6 °F 53.6 °F 100% 30.13 in 10.0 mi ENE 4.6 mph - N/A   Clear
3:36 AM 55.4 °F 53.6 °F 94% 30.14 in 10.0 mi Calm Calm - N/A   Clear
3:56 AM 55.4 °F 53.6 °F 94% 30.14 in 10.0 mi Calm Calm - N/A   Clear
4:16 AM 55.4 °F 53.6 °F 94% 30.14 in 10.0 mi North 4.6 mph - N/A   Clear
4:36 AM 55.4 °F 53.6 °F 94% 30.13 in 10.0 mi North 4.6 mph - N/A   Clear
4:56 AM 55.4 °F 53.6 °F 94% 30.13 in 10.0 mi North 3.5 mph - N/A   Clear
5:16 AM 55.4 °F 53.6 °F 94% 30.13 in 10.0 mi Calm Calm - N/A   Clear
5:36 AM 53.6 °F 51.8 °F 94% 30.13 in 10.0 mi Calm Calm - N/A   Clear
5:56 AM 53.6 °F 51.8 °F 94% 30.14 in 7.0 mi Calm Calm - N/A   Clear
6:16 AM 53.6 °F 51.8 °F 94% 30.15 in 10.0 mi Calm Calm - N/A   Clear
6:36 AM 51.8 °F 51.8 °F 100% 30.15 in 7.0 mi Calm Calm - N/A   Clear
6:56 AM 53.6 °F 51.8 °F 94% 30.16 in 10.0 mi Calm Calm - N/A   Clear
7:16 AM 55.4 °F 53.6 °F 94% 30.16 in 10.0 mi Calm Calm - N/A   Clear
7:36 AM 57.2 °F 53.6 °F 88% 30.16 in 10.0 mi Calm Calm - N/A   Clear
7:56 AM 59.0 °F 53.6 °F 82% 30.16 in 10.0 mi Calm Calm - N/A   Clear
8:16 AM 60.8 °F 53.6 °F 77% 30.17 in 10.0 mi Calm Calm - N/A   Clear
8:36 AM 60.8 °F 53.6 °F 77% 30.18 in 10.0 mi Calm Calm - N/A   Clear
8:56 AM 62.6 °F 53.6 °F 72% 30.18 in 10.0 mi Calm Calm - N/A   Clear
9:16 AM 64.4 °F 55.4 °F 73% 30.18 in 10.0 mi Calm Calm - N/A   Clear
9:36 AM 66.2 °F 55.4 °F 68% 30.17 in 10.0 mi Calm Calm - N/A   Clear
9:56 AM 66.2 °F 53.6 °F 64% 30.17 in 10.0 mi SW 3.5 mph - N/A   Clear
10:16 AM 68.0 °F 53.6 °F 60% 30.16 in 10.0 mi Calm Calm - N/A   Clear
10:36 AM 68.0 °F 55.4 °F 64% 30.16 in 10.0 mi South 3.5 mph - N/A   Clear
10:56 AM 71.6 °F 55.4 °F 57% 30.16 in 10.0 mi Calm Calm - N/A   Clear
11:16 AM 71.6 °F 53.6 °F 53% 30.16 in 10.0 mi SE 3.5 mph - N/A   Clear
11:37 AM 73.4 °F 53.6 °F 50% 30.15 in 10.0 mi ESE 5.8 mph - N/A   Clear
11:57 AM 75.2 °F 53.6 °F 47% 30.15 in 10.0 mi SSE 4.6 mph - N/A   Clear
12:17 PM 75.2 °F 50.0 °F 41% 30.15 in 10.0 mi South 4.6 mph - N/A   Clear
12:37 PM 77.0 °F 48.2 °F 36% 30.15 in 10.0 mi Calm Calm - N/A   Clear
12:57 PM 77.0 °F 48.2 °F 36% 30.14 in 10.0 mi East 5.8 mph - N/A   Clear
1:17 PM 77.0 °F 48.2 °F 36% 30.13 in 10.0 mi Calm Calm - N/A   Clear
1:37 PM 77.0 °F 50.0 °F 39% 30.13 in 10.0 mi Calm Calm - N/A   Clear
1:57 PM 78.8 °F 50.0 °F 36% 30.12 in 10.0 mi ENE 4.6 mph - N/A   Clear
2:17 PM 78.8 °F 50.0 °F 36% 30.12 in 10.0 mi Calm Calm - N/A   Clear
2:37 PM 80.6 °F 50.0 °F 34% 30.11 in 10.0 mi SSW 3.5 mph - N/A   Clear
2:57 PM 78.8 °F 48.2 °F 34% 30.11 in 10.0 mi SSW 4.6 mph - N/A   Clear
3:17 PM 80.6 °F 50.0 °F 34% 30.10 in 10.0 mi ESE 5.8 mph - N/A   Clear
3:37 PM 80.6 °F 50.0 °F 34% 30.10 in 10.0 mi SSE 3.5 mph - N/A   Clear
3:57 PM 80.6 °F 48.2 °F 32% 30.09 in 10.0 mi ESE 6.9 mph - N/A   Clear
4:17 PM 80.6 °F 50.0 °F 34% 30.09 in 10.0 mi East 6.9 mph - N/A   Clear
4:37 PM 80.6 °F 48.2 °F 32% 30.08 in 10.0 mi East 6.9 mph - N/A   Clear
4:57 PM 80.6 °F 48.2 °F 32% 30.08 in 10.0 mi East 6.9 mph - N/A   Clear
5:17 PM 80.6 °F 50.0 °F 34% 30.07 in 10.0 mi East 4.6 mph - N/A   Clear
5:37 PM 80.6 °F 50.0 °F 34% 30.07 in 10.0 mi East 3.5 mph - N/A   Clear
5:57 PM 80.6 °F 51.8 °F 37% 30.07 in 10.0 mi ESE 5.8 mph - N/A   Clear
6:17 PM 80.6 °F 51.8 °F 37% 30.07 in 10.0 mi East 6.9 mph - N/A   Clear
6:37 PM 80.6 °F 51.8 °F 37% 30.07 in 10.0 mi East 5.8 mph - N/A   Clear
6:57 PM 80.6 °F 51.8 °F 37% 30.07 in 10.0 mi ESE 4.6 mph - N/A   Clear
7:17 PM 78.8 °F 51.8 °F 39% 30.07 in 10.0 mi East 3.5 mph - N/A   Clear
7:37 PM 78.8 °F 51.8 °F 39% 30.07 in 10.0 mi Calm Calm - N/A   Clear
7:57 PM 78.8 °F 53.6 °F 42% 30.07 in 10.0 mi Calm Calm - N/A   Clear
8:17 PM 77.0 °F 53.6 °F 44% 30.07 in 10.0 mi Calm Calm - N/A   Clear
8:38 PM 73.4 °F 53.6 °F 50% 30.07 in 10.0 mi Calm Calm - N/A   Clear
8:58 PM 73.4 °F 53.6 °F 50% 30.07 in 10.0 mi Calm Calm - N/A   Clear
9:18 PM 71.6 °F 53.6 °F 53% 30.07 in 10.0 mi Calm Calm - N/A   Clear
9:38 PM 69.8 °F 55.4 °F 60% 30.08 in 10.0 mi NW 3.5 mph - N/A   Clear
9:58 PM 69.8 °F 55.4 °F 60% 30.08 in 10.0 mi NNW 3.5 mph - N/A   Clear
10:18 PM 69.8 °F 55.4 °F 60% 30.09 in 10.0 mi NNW 4.6 mph - N/A   Clear
10:38 PM 68.0 °F 55.4 °F 64% 30.09 in 10.0 mi Calm Calm - N/A   Clear
10:58 PM 66.2 °F 57.2 °F 73% 30.09 in 10.0 mi Calm Calm - N/A   Clear
11:18 PM 64.4 °F 59.0 °F 83% 30.09 in 10.0 mi Calm Calm - N/A   Clear
11:38 PM 64.4 °F 59.0 °F 83% 30.09 in 10.0 mi Calm Calm - N/A   Clear
11:58 PM 64.4 °F 59.0 °F 83% 30.09 in 10.0 mi Calm Calm - N/A   Clear